Location: Murray Reservoir
(44.3513°N, 118.1041°W)
Time: 08:32:19
(UTC-07:00)

ISS - Visible Passes

Search period start: 23 August 2019 00:00
Search period end: 02 September 2019 00:00
Orbit: 410 x 420 km, 51.6° (Epoch: 23 August)

Date Brightness Start Highest point End Pass type
(mag) Time Alt. Az. Time Alt. Az. Time Alt. Az.
27 Aug -1.7 05:07:17 10° S 05:09:54 22° SE 05:12:33 10° E visible
28 Aug -1.2 04:20:11 12° SSE 04:21:17 13° SE 04:22:57 10° ESE visible
29 Aug -3.3 05:06:25 17° SW 05:08:45 55° SE 05:12:02 10° ENE visible
30 Aug -2.6 04:19:40 31° SSE 04:20:01 32° SE 04:23:03 10° ENE visible
31 Aug -1.0 03:32:52 15° E 03:32:52 15° E 03:33:49 10° E visible
31 Aug -3.6 05:05:45 21° WSW 05:07:46 63° NNW 05:11:05 10° NE visible
01 Sep -3.9 04:18:52 83° SSE 04:18:53 83° SSE 04:22:14 10° ENE visible
